QPF
0.04 0.05 0.05 0.04 0.04 0.03 0.02 0.02 0.04 0.05 0.05 0.04 0.03 0.03 0.02 0.02 0.03 0.02 0.02 0.03 0.03 0.03 0.04 0.04 0.05 0.04 0.04 0.04 0.03 0.02 0.01 0.01 0.01 0.02 0.02 0.02 0.03 0.02
0.03 0.04 0.05 0.05 0.05 0.04 0.04 0.04 0.04 0.05 0.05 0.04 0.03 0.02 0.03 0.03 0.04 0.03 0.04 0.07 0.05 0.03 0.02 0.03 0.03 0.03 0.02 0.02 0.02 0.01 0.01 0.00 0.01 0.01 0.02 0.02 0.01 0.01
0.01 0.02 0.03 0.04 0.05 0.04 0.05 0.04 0.04 0.04 0.04 0.04 0.03 0.03 0.03 0.04 0.05 0.07 0.08 0.12 0.08 0.04 0.02 0.03 0.03 0.02 0.02 0.02 0.01 0.02 0.01 0.00 0.00 0.01 0.02 0.02 0.01 0.01
0.01 0.01 0.02 0.03 0.04 0.04 0.04 0.03 0.03 0.04 0.04 0.04 0.03 0.04 0.03 0.04 0.04 0.05 0.09 0.13 0.10 0.06 0.04 0.03 0.02 0.02 0.01 0.01 0.01 0.02 0.01 0.00 0.00 0.01 0.01 0.01 0.01 0.01
0.01 0.01 0.01 0.02 0.04 0.05 0.05 0.04 0.03 0.03 0.04 0.04 0.03 0.06 0.04 0.03 0.03 0.03 0.05 0.07 0.09 0.10 0.07 0.05 0.02 0.02 0.01 0.01 0.01 0.01 0.03 0.03 0.01 0.01 0.00 0.00 0.00 0.00
0.01 0.01 0.01 0.02 0.02 0.04 0.05 0.06 0.05 0.05 0.04 0.04 0.04 0.06 0.06 0.04 0.03 0.03 0.04 0.05 0.07 0.09 0.08 0.05 0.03 0.02 0.01 0.01 0.01 0.02 0.04 0.06 0.04 0.01 0.00 0.00 0.01 0.01
0.01 0.01 0.01 0.01 0.01 0.02 0.02 0.04 0.05 0.06 0.05 0.04 0.05 0.06 0.05 0.04 0.03 0.02 0.03 0.05 0.05 0.06 0.07 0.05 0.03 0.02 0.01 0.01 0.01 0.03 0.06 0.07 0.07 0.03 0.01 0.01 0.01 0.02
0.01 0.01 0.01 0.02 0.01 0.01 0.01 0.02 0.03 0.04 0.05 0.05 0.04 0.04 0.05 0.04 0.03 0.03 0.03 0.04 0.05 0.06 0.06 0.05 0.03 0.02 0.01 0.01 0.01 0.03 0.08 0.10 0.08 0.05 0.03 0.02 0.03 0.03
0.02 0.02 0.02 0.02 0.02 0.02 0.01 0.02 0.02 0.02 0.03 0.04 0.04 0.04 0.05 0.05 0.05 0.05 0.05 0.04 0.04 0.05 0.05 0.04 0.03 0.02 0.01 0.01 0.01 0.03 0.06 0.09 0.08 0.06 0.05 0.04 0.05 0.05
0.02 0.02 0.03 0.02 0.02 0.03 0.03 0.02 0.03 0.02 0.02 0.02 0.04 0.06 0.06 0.07 0.06 0.06 0.06 0.07 0.05 0.04 0.05 0.05 0.03 0.03 0.02 0.01 0.01 0.03 0.05 0.07 0.07 0.06 0.06 0.05 0.05 0.05
0.01 0.01 0.02 0.02 0.02 0.02 0.03 0.03 0.03 0.03 0.02 0.02 0.02 0.03 0.03 0.03 0.04 0.05 0.07 0.07 0.06 0.05 0.04 0.05 0.04 0.04 0.04 0.03 0.02 0.02 0.04 0.05 0.04 0.04 0.04 0.03 0.03 0.03
0.02 0.02 0.02 0.02 0.02 0.02 0.03 0.04 0.03 0.04 0.03 0.03 0.02 0.02 0.03 0.03 0.03 0.04 0.07 0.08 0.07 0.06 0.03 0.04 0.04 0.04 0.03 0.03 0.03 0.02 0.03 0.03 0.03 0.03 0.03 0.02 0.02 0.01
0.04 0.03 0.03 0.02 0.02 0.02 0.03 0.03 0.03 0.03 0.04 0.05 0.05 0.04 0.03 0.03 0.03 0.05 0.07 0.08 0.08 0.07 0.05 0.04 0.04 0.04 0.04 0.04 0.04 0.04 0.04 0.03 0.03 0.02 0.02 0.01 0.01 0.01
0.03 0.03 0.04 0.04 0.03 0.02 0.03 0.03 0.03 0.03 0.04 0.05 0.06 0.05 0.04 0.03 0.03 0.03 0.05 0.08 0.08 0.07 0.07 0.06 0.04 0.04 0.04 0.04 0.04 0.03 0.03 0.03 0.03 0.03 0.02 0.02 0.01 0.01
0.03 0.03 0.04 0.04 0.03 0.03 0.03 0.04 0.03 0.03 0.04 0.05 0.05 0.04 0.04 0.04 0.04 0.03 0.04 0.05 0.06 0.05 0.05 0.06 0.06 0.05 0.06 0.06 0.06 0.04 0.04 0.03 0.03 0.03 0.03 0.03 0.02 0.02
0.03 0.03 0.03 0.03 0.03 0.03 0.03 0.04 0.04 0.03 0.03 0.04 0.04 0.04 0.05 0.05 0.05 0.05 0.04 0.05 0.05 0.05 0.05 0.06 0.07 0.07 0.06 0.06 0.07 0.07 0.07 0.07 0.05 0.04 0.03 0.03 0.03 0.02
0.02 0.03 0.03 0.03 0.02 0.02 0.02 0.02 0.03 0.03 0.02 0.03 0.03 0.03 0.03 0.03 0.04 0.05 0.05 0.05 0.05 0.06 0.07 0.07 0.07 0.07 0.07 0.08 0.09 0.08 0.07 0.07 0.06 0.05 0.04 0.04 0.03 0.02
0.02 0.02 0.03 0.03 0.04 0.02 0.02 0.02 0.02 0.02 0.03 0.04 0.03 0.02 0.02 0.02 0.03 0.04 0.05 0.05 0.05 0.06 0.07 0.08 0.08 0.08 0.07 0.07 0.07 0.06 0.07 0.07 0.06 0.06 0.05 0.05 0.05 0.04
0.01 0.02 0.03 0.03 0.04 0.04 0.02 0.03 0.03 0.03 0.03 0.03 0.03 0.04 0.04 0.03 0.02 0.03 0.03 0.04 0.03 0.04 0.06 0.07 0.07 0.06 0.06 0.06 0.04 0.04 0.05 0.06 0.06 0.05 0.05 0.05 0.06 0.05
0.02 0.03 0.03 0.03 0.04 0.04 0.03 0.02 0.02 0.03 0.03 0.02 0.03 0.03 0.03 0.03 0.03 0.04 0.05 0.06 0.05 0.03 0.05 0.05 0.05 0.04 0.04 0.05 0.06 0.06 0.06 0.05 0.05 0.05 0.05 0.05 0.05 0.05
0.02 0.03 0.03 0.03 0.04 0.05 0.04 0.03 0.03 0.02 0.02 0.02 0.02 0.02 0.03 0.03 0.03 0.03 0.04 0.04 0.05 0.06 0.06 0.07 0.06 0.05 0.05 0.06 0.06 0.05 0.05 0.04 0.04 0.05 0.05 0.04 0.03 0.03
0.03 0.03 0.03 0.03 0.03 0.04 0.04 0.03 0.02 0.02 0.02 0.02 0.02 0.03 0.03 0.03 0.03 0.04 0.03 0.03 0.02 0.02 0.03 0.05 0.06 0.05 0.04 0.05 0.05 0.05 0.06 0.05 0.05 0.04 0.04 0.04 0.03 0.03
0.04 0.03 0.02 0.03 0.03 0.03 0.04 0.04 0.02 0.02 0.02 0.02 0.02 0.02 0.03 0.04 0.04 0.04 0.04 0.04 0.03 0.02 0.03 0.04 0.05 0.05 0.03 0.03 0.05 0.06 0.06 0.05 0.04 0.04 0.03 0.03 0.02 0.01
MSLP
1012.63 1012.53 1012.42 1012.31 1012.17 1012.02 1011.83 1011.62 1011.37 1011.11 1010.82 1010.54 1010.27 1010.04 1009.89 1009.82 1009.87 1010.04 1010.33 1010.74 1011.26 1011.84 1012.47 1013.12 1013.78 1014.41 1015.03 1015.63 1016.20 1016.77 1017.33 1017.87 1018.40 1018.91 1019.38 1019.80 1020.17 1020.48
1012.23 1012.10 1011.97 1011.84 1011.69 1011.54 1011.37 1011.18 1010.97 1010.74 1010.50 1010.25 1010.02 1009.83 1009.70 1009.65 1009.71 1009.89 1010.19 1010.60 1011.12 1011.70 1012.34 1012.99 1013.65 1014.29 1014.92 1015.53 1016.12 1016.70 1017.27 1017.83 1018.37 1018.89 1019.38 1019.82 1020.20 1020.53
1011.86 1011.69 1011.52 1011.35 1011.18 1011.02 1010.87 1010.71 1010.55 1010.37 1010.20 1010.02 1009.86 1009.73 1009.66 1009.67 1009.77 1009.97 1010.29 1010.71 1011.23 1011.80 1012.42 1013.06 1013.70 1014.33 1014.94 1015.53 1016.11 1016.68 1017.25 1017.81 1018.35 1018.86 1019.35 1019.79 1020.18 1020.52
1011.54 1011.31 1011.09 1010.88 1010.68 1010.52 1010.37 1010.24 1010.13 1010.04 1009.95 1009.86 1009.80 1009.77 1009.79 1009.87 1010.04 1010.29 1010.64 1011.07 1011.58 1012.14 1012.72 1013.32 1013.92 1014.51 1015.08 1015.63 1016.18 1016.72 1017.26 1017.79 1018.32 1018.82 1019.29 1019.72 1020.11 1020.46
1011.27 1010.99 1010.71 1010.46 1010.24 1010.05 1009.92 1009.83 1009.78 1009.76 1009.76 1009.79 1009.84 1009.93 1010.05 1010.23 1010.47 1010.78 1011.17 1011.61 1012.11 1012.64 1013.19 1013.73 1014.27 1014.79 1015.29 1015.79 1016.28 1016.78 1017.28 1017.78 1018.27 1018.76 1019.21 1019.63 1020.01 1020.35
1011.05 1010.72 1010.40 1010.11 1009.86 1009.68 1009.56 1009.50 1009.51 1009.57 1009.67 1009.80 1009.96 1010.16 1010.39 1010.67 1010.99 1011.36 1011.78 1012.24 1012.72 1013.22 1013.71 1014.19 1014.65 1015.09 1015.52 1015.95 1016.38 1016.82 1017.28 1017.75 1018.22 1018.68 1019.12 1019.53 1019.90 1020.23
1010.87 1010.51 1010.16 1009.85 1009.59 1009.41 1009.31 1009.29 1009.35 1009.48 1009.65 1009.88 1010.13 1010.42 1010.75 1011.10 1011.48 1011.90 1012.34 1012.80 1013.27 1013.72 1014.16 1014.57 1014.96 1015.33 1015.68 1016.04 1016.42 1016.82 1017.24 1017.69 1018.15 1018.60 1019.04 1019.45 1019.81 1020.12
1010.71 1010.34 1009.99 1009.68 1009.44 1009.27 1009.20 1009.22 1009.32 1009.49 1009.72 1010.01 1010.33 1010.68 1011.05 1011.45 1011.88 1012.31 1012.76 1013.21 1013.64 1014.05 1014.44 1014.79 1015.10 1015.41 1015.70 1016.01 1016.35 1016.72 1017.14 1017.58 1018.04 1018.51 1018.96 1019.36 1019.72 1020.02
1010.57 1010.23 1009.90 1009.63 1009.41 1009.28 1009.24 1009.29 1009.42 1009.62 1009.88 1010.19 1010.53 1010.89 1011.28 1011.68 1012.11 1012.53 1012.96 1013.38 1013.77 1014.14 1014.47 1014.76 1015.03 1015.29 1015.55 1015.83 1016.16 1016.53 1016.95 1017.41 1017.89 1018.38 1018.84 1019.26 1019.61 1019.89
1010.47 1010.18 1009.92 1009.70 1009.53 1009.45 1009.45 1009.52 1009.67 1009.87 1010.12 1010.41 1010.73 1011.07 1011.42 1011.79 1012.17 1012.55 1012.93 1013.30 1013.65 1013.97 1014.25 1014.51 1014.75 1014.98 1015.22 1015.50 1015.83 1016.22 1016.67 1017.15 1017.67 1018.18 1018.66 1019.08 1019.42 1019.67
1010.44 1010.23 1010.04 1009.89 1009.80 1009.76 1009.79 1009.88 1010.03 1010.22 1010.44 1010.69 1010.95 1011.22 1011.51 1011.80 1012.10 1012.42 1012.73 1013.04 1013.33 1013.60 1013.86 1014.08 1014.30 1014.53 1014.78 1015.07 1015.41 1015.82 1016.29 1016.81 1017.34 1017.87 1018.35 1018.76 1019.08 1019.30
1010.52 1010.39 1010.28 1010.20 1010.16 1010.17 1010.23 1010.33 1010.47 1010.63 1010.80 1010.99 1011.17 1011.36 1011.56 1011.76 1011.98 1012.21 1012.45 1012.69 1012.93 1013.16 1013.38 1013.59 1013.80 1014.02 1014.28 1014.58 1014.94 1015.36 1015.84 1016.36 1016.90 1017.42 1017.88 1018.27 1018.55 1018.72
1010.70 1010.65 1010.60 1010.58 1010.59 1010.63 1010.70 1010.79 1010.91 1011.03 1011.16 1011.28 1011.39 1011.50 1011.61 1011.73 1011.86 1012.01 1012.17 1012.35 1012.54 1012.73 1012.93 1013.12 1013.32 1013.54 1013.80 1014.10 1014.46 1014.87 1015.34 1015.83 1016.34 1016.82 1017.24 1017.57 1017.80 1017.91
1010.98 1010.97 1010.96 1010.97 1010.99 1011.03 1011.10 1011.18 1011.27 1011.36 1011.44 1011.51 1011.56 1011.61 1011.65 1011.70 1011.76 1011.85 1011.96 1012.09 1012.24 1012.40 1012.57 1012.75 1012.94 1013.15 1013.39 1013.67 1014.00 1014.38 1014.79 1015.23 1015.67 1016.08 1016.43 1016.69 1016.85 1016.91
1011.28 1011.28 1011.27 1011.26 1011.27 1011.29 1011.33 1011.39 1011.46 1011.52 1011.57 1011.61 1011.63 1011.64 1011.65 1011.66 1011.69 1011.74 1011.82 1011.92 1012.05 1012.19 1012.35 1012.51 1012.68 1012.87 1013.08 1013.31 1013.58 1013.89 1014.23 1014.58 1014.93 1015.24 1015.50 1015.68 1015.78 1015.79
1011.52 1011.48 1011.43 1011.38 1011.34 1011.32 1011.33 1011.36 1011.41 1011.46 1011.50 1011.53 1011.55 1011.56 1011.56 1011.57 1011.60 1011.65 1011.72 1011.82 1011.94 1012.08 1012.22 1012.37 1012.52 1012.67 1012.83 1013.01 1013.21 1013.43 1013.67 1013.91 1014.15 1014.36 1014.53 1014.63 1014.67 1014.64
1011.58 1011.49 1011.37 1011.26 1011.16 1011.09 1011.06 1011.07 1011.10 1011.15 1011.20 1011.25 1011.30 1011.33 1011.36 1011.40 1011.45 1011.51 1011.61 1011.72 1011.85 1011.99 1012.13 1012.27 1012.40 1012.52 1012.63 1012.74 1012.86 1012.98 1013.12 1013.25 1013.39 1013.50 1013.58 1013.62 1013.62 1013.57
1011.40 1011.24 1011.06 1010.88 1010.73 1010.62 1010.56 1010.55 1010.59 1010.64 1010.72 1010.80 1010.88 1010.95 1011.03 1011.10 1011.19 1011.29 1011.41 1011.55 1011.70 1011.86 1012.01 1012.14 1012.26 1012.34 1012.41 1012.46 1012.50 1012.54 1012.58 1012.62 1012.67 1012.70 1012.72 1012.72 1012.70 1012.65
1010.99 1010.77 1010.54 1010.32 1010.14 1010.01 1009.94 1009.93 1009.98 1010.06 1010.16 1010.27 1010.38 1010.49 1010.59 1010.70 1010.82 1010.95 1011.11 1011.27 1011.45 1011.63 1011.79 1011.92 1012.03 1012.10 1012.14 1012.14 1012.12 1012.09 1012.06 1012.03 1012.01 1011.99 1011.97 1011.95 1011.93 1011.91
1010.39 1010.16 1009.92 1009.70 1009.52 1009.41 1009.36 1009.37 1009.43 1009.53 1009.65 1009.77 1009.89 1010.01 1010.13 1010.24 1010.37 1010.52 1010.69 1010.87 1011.07 1011.26 1011.44 1011.59 1011.70 1011.76 1011.78 1011.76 1011.71 1011.63 1011.55 1011.47 1011.40 1011.35 1011.32 1011.30 1011.29 1011.30
1009.76 1009.55 1009.35 1009.18 1009.05 1008.99 1008.98 1009.02 1009.11 1009.21 1009.33 1009.44 1009.54 1009.63 1009.71 1009.80 1009.91 1010.04 1010.19 1010.37 1010.57 1010.78 1010.97 1011.13 1011.25 1011.33 1011.35 1011.32 1011.24 1011.15 1011.04 1010.93 1010.84 1010.77 1010.72 1010.71 1010.72 1010.76
1009.23 1009.11 1009.00 1008.91 1008.88 1008.88 1008.94 1009.02 1009.11 1009.21 1009.29 1009.35 1009.39 1009.41 1009.42 1009.44 1009.48 1009.56 1009.67 1009.83 1010.01 1010.21 1010.41 1010.58 1010.72 1010.81 1010.84 1010.81 1010.74 1010.63 1010.51 1010.39 1010.28 1010.19 1010.14 1010.13 1010.15 1010.20
1008.96 1008.96 1008.97 1009.01 1009.08 1009.18 1009.29 1009.41 1009.50 1009.56 1009.58 1009.56 1009.49 1009.40 1009.29 1009.20 1009.14 1009.13 1009.17 1009.28 1009.42 1009.61 1009.80 1009.98 1010.13 1010.23 1010.28 1010.27 1010.20 1010.09 1009.96 1009.82 1009.70 1009.60 1009.53 1009.50 1009.51 1009.55
Thickness
5698 5697 5696 5697 5697 5697 5696 5694 5690 5686 5688 5691 5692 5692 5690 5689 5687 5686 5686 5683 5681 5678 5676 5674 5672 5670 5668 5666 5664 5662 5660 5658 5656 5655 5653 5652 5651 5650
5695 5694 5693 5695 5694 5693 5692 5691 5690 5687 5686 5690 5689 5690 5687 5687 5684 5683 5683 5681 5679 5677 5674 5672 5670 5668 5666 5663 5661 5659 5657 5655 5653 5651 5650 5649 5648 5646
5693 5692 5690 5691 5691 5690 5690 5689 5687 5686 5682 5685 5687 5687 5683 5681 5682 5680 5680 5679 5679 5675 5672 5670 5667 5665 5663 5661 5658 5656 5654 5653 5651 5649 5648 5646 5645 5644
5691 5689 5688 5688 5686 5687 5686 5686 5685 5683 5681 5679 5681 5682 5680 5679 5678 5677 5679 5679 5677 5674 5671 5668 5665 5663 5660 5658 5656 5654 5652 5651 5649 5647 5646 5644 5643 5641
5689 5687 5686 5685 5683 5684 5683 5683 5683 5682 5679 5678 5678 5679 5678 5678 5675 5676 5677 5675 5675 5673 5669 5666 5663 5661 5658 5656 5654 5652 5650 5649 5647 5645 5644 5642 5640 5638
5687 5686 5684 5683 5682 5681 5680 5679 5679 5678 5677 5676 5676 5676 5674 5675 5673 5673 5673 5673 5673 5673 5669 5666 5662 5659 5657 5654 5652 5650 5648 5646 5645 5643 5641 5639 5637 5636
5685 5684 5683 5680 5679 5677 5679 5678 5676 5675 5675 5674 5673 5673 5672 5670 5670 5671 5670 5669 5669 5669 5667 5665 5662 5660 5657 5653 5651 5648 5646 5644 5642 5640 5638 5636 5634 5633
5682 5681 5680 5678 5675 5672 5671 5671 5670 5671 5672 5671 5671 5670 5667 5668 5668 5667 5666 5664 5663 5666 5663 5662 5661 5659 5657 5655 5651 5648 5645 5643 5640 5638 5636 5634 5632 5630
5679 5678 5679 5679 5674 5674 5670 5667 5666 5665 5664 5666 5668 5667 5666 5666 5664 5663 5662 5661 5660 5662 5658 5658 5658 5656 5655 5653 5649 5646 5643 5641 5638 5635 5633 5631 5629 5627
5677 5676 5674 5674 5673 5670 5670 5669 5668 5667 5664 5663 5664 5665 5664 5663 5660 5659 5658 5657 5657 5658 5656 5654 5655 5654 5654 5651 5647 5644 5641 5638 5635 5633 5630 5628 5626 5624
5675 5674 5672 5671 5667 5664 5665 5665 5665 5665 5663 5661 5660 5659 5658 5657 5656 5655 5655 5653 5653 5655 5655 5652 5652 5652 5651 5649 5646 5642 5638 5635 5632 5630 5627 5625 5623 5620
5672 5671 5667 5666 5663 5660 5662 5662 5661 5662 5662 5660 5658 5657 5656 5656 5653 5652 5653 5652 5651 5651 5652 5649 5648 5647 5646 5648 5645 5641 5636 5633 5630 5627 5624 5622 5619 5617
5671 5670 5669 5662 5658 5656 5656 5658 5657 5657 5657 5657 5658 5658 5658 5657 5655 5653 5652 5650 5649 5648 5650 5646 5644 5643 5642 5642 5641 5640 5637 5633 5629 5626 5622 5620 5617 5615
5666 5668 5666 5658 5655 5652 5652 5653 5651 5649 5653 5655 5656 5656 5657 5656 5656 5653 5650 5648 5646 5646 5645 5642 5640 5639 5637 5636 5635 5636 5634 5631 5629 5627 5624 5619 5615 5613
5661 5659 5656 5652 5650 5649 5648 5647 5646 5648 5651 5652 5653 5654 5655 5654 5652 5649 5647 5644 5643 5643 5642 5638 5637 5636 5634 5633 5632 5631 5629 5628 5627 5625 5623 5620 5618 5614
5654 5652 5648 5647 5646 5647 5646 5645 5646 5648 5649 5649 5649 5651 5651 5649 5647 5646 5644 5642 5640 5640 5639 5636 5634 5632 5631 5631 5629 5627 5626 5625 5624 5622 5619 5618 5616 5614
5650 5649 5649 5648 5647 5648 5648 5647 5647 5647 5646 5646 5646 5646 5645 5644 5643 5642 5640 5639 5637 5636 5636 5634 5632 5630 5629 5627 5626 5625 5624 5623 5621 5619 5615 5615 5615 5614
5641 5645 5646 5647 5647 5647 5647 5646 5645 5644 5644 5644 5643 5643 5642 5641 5640 5639 5638 5637 5635 5634 5633 5632 5629 5627 5625 5626 5622 5623 5622 5621 5619 5617 5614 5613 5613 5613
5639 5642 5643 5644 5644 5644 5644 5644 5643 5642 5641 5640 5640 5640 5640 5639 5637 5637 5636 5634 5633 5631 5631 5629 5626 5623 5621 5622 5623 5618 5618 5617 5615 5613 5612 5611 5610 5610
5639 5641 5641 5641 5641 5641 5641 5640 5640 5639 5638 5637 5637 5637 5637 5636 5635 5634 5633 5631 5630 5629 5627 5626 5623 5622 5620 5619 5619 5618 5613 5613 5612 5610 5610 5609 5608 5605
5638 5638 5638 5638 5637 5636 5636 5636 5635 5635 5634 5634 5634 5633 5632 5631 5631 5630 5630 5627 5625 5625 5623 5622 5621 5617 5616 5614 5613 5614 5613 5608 5607 5605 5605 5604 5604 5603
5634 5634 5633 5633 5632 5631 5631 5631 5630 5630 5629 5629 5629 5628 5628 5627 5627 5625 5625 5625 5623 5623 5621 5619 5617 5614 5611 5609 5609 5609 5609 5607 5603 5599 5597 5597 5598 5598
5630 5629 5628 5627 5627 5626 5626 5626 5625 5625 5625 5624 5624 5623 5623 5622 5622 5622 5620 5620 5619 5618 5616 5614 5613 5610 5609 5607 5605 5605 5605 5604 5603 5601 5598 5595 5592 5590